Regional Weather Roundup
Issued by NWS

Home | Current Version | Previous Version | Graphics & Text | Print | Product List | Glossary On
Versions: 1 2 3 4 5 6 7 8 9 10 11 12 13 14 15 16 17 18 19 20 21 22 23 24 25 26 27 28 29 30 31 32 33 34 35 36 37 38 39 40 41 42 43 44 45 46 47 48 49 50
000
ASUS43 KDTX 270610
RWRMI
MICHIGAN HOURLY REGIONAL WEATHER ROUNDUP
NATIONAL WEATHER SERVICE DETROIT/PONTIAC MI
ISSUED BY NATIONAL WEATHER SERVICE GRAND RAPIDS MI
200 AM EDT SUN MAY 27 2018

NOTE: "FAIR" INDICATES FEW OR NO CLOUDS BELOW 12,000 FEET WITH NO
SIGNIFICANT WEATHER AND/OR OBSTRUCTION TO VISIBILITY.

MIZ047>049-052>055-059>063-066>070-074>076-081>083-270700-
SOUTHEAST LOWER MICHIGAN

CITY           SKY/WX    TMP DP  RH WIND       PRES   REMARKS
ADRIAN         FAIR      66  66 100 W5        29.84F FOG
6HR MIN TEMP:  65; 6HR MAX TEMP:  76;

ALMA           FAIR      65  65  98 SW7       29.81F
6HR MIN TEMP:  62; 6HR MAX TEMP:  82;

ANN ARBOR      FAIR      65  64  97 S3        29.82F
BAD AXE        FAIR      63  63  99 CALM      29.83F FOG
6HR MIN TEMP:  63; 6HR MAX TEMP:  73;

DETROIT CITY   FAIR      68  63  84 CALM      29.82F
6HR MIN TEMP:  68; 6HR MAX TEMP:  77;

DETROIT        MOCLDY    69  63  81 CALM      29.84R
6HR MIN TEMP:  67; 6HR MAX TEMP:  75;

FLINT          FAIR      62  62 100 S3        29.83S
6HR MIN TEMP:  62; 6HR MAX TEMP:  78; 6HR PCP:  0.01;

GROSSE ILE     FAIR      66  65  97 CALM      29.83R FOG
6HR MIN TEMP:  63; 6HR MAX TEMP:  70;

HILLSDALE      FAIR      64  63  94 S5        29.85F
HOWELL         FAIR      63  61  96 CALM      29.82F FOG
6HR MIN TEMP:  62; 6HR MAX TEMP:  76; 6HR PCP:  0.32;


CITY           SKY/WX    TMP DP  RH WIND       PRES   REMARKS
JACKSON        FAIR      68  66  93 CALM      29.84F FOG
6HR MIN TEMP:  67; 6HR MAX TEMP:  78;

LANSING        FAIR      68  64  87 CALM      29.83F
6HR MIN TEMP:  68; 6HR MAX TEMP:  83;

MASON          FAIR      68  63  82 CALM      29.84F
6HR MIN TEMP:  67; 6HR MAX TEMP:  81;

MONROE         FAIR      65  64  93 CALM      29.82S FOG
6HR MIN TEMP:  64; 6HR MAX TEMP:  73;

MT. CLEMENS    FAIR      65  65 100 CALM        N/A
6HR MIN TEMP:  64; 6HR MAX TEMP:  75;

PONTIAC        FAIR      67  65  93 CALM      29.82S
6HR MIN TEMP:  67; 6HR MAX TEMP:  78; 6HR PCP: TRACE;

PORT HOPE        N/A     64  63  96 S3        29.80F
6HR MIN TEMP:  53; 6HR MAX TEMP:  65; 6HR PCP:  0.16;

PORT HURON     FAIR      63  59  88 CALM      29.85S
TRI CITIES     FAIR      64  64 100 S3        29.82F FOG
6HR MIN TEMP:  65; 6HR MAX TEMP:  83; 6HR PCP:  0.49;

YPSILANTI      FAIR      70  65  84 S5        29.83R
6HR MIN TEMP:  69; 6HR MAX TEMP:  78;

$$
MIZ043>046-050>051-056>058-064>065-071>073-077>080-270700-
SOUTHWEST LOWER MICHIGAN

CITY           SKY/WX    TMP DP  RH WIND       PRES   REMARKS
BATTLE CREEK   FAIR      64  60  87 CALM      29.84F
6HR MIN TEMP:  64; 6HR MAX TEMP:  82;

BENTON HARBOR  FAIR      63  60  90 CALM      29.83S
6HR MIN TEMP:  63; 6HR MAX TEMP:  81;

BIG RAPIDS     FAIR      65  61  87 S7        29.81S
6HR MIN TEMP:  62; 6HR MAX TEMP:  81;

COLDWATER      FAIR      67  66  97 SE3       29.84F
6HR MIN TEMP:  65; 6HR MAX TEMP:  83;

HOLLAND        FAIR      62  60  93 CALM      29.83S
6HR MIN TEMP:  61; 6HR MAX TEMP:  78;

GRAND RAPIDS   FAIR      64  61  90 CALM      29.82F
6HR MIN TEMP:  64; 6HR MAX TEMP:  80;

KALAMAZOO      FAIR      65  59  81 NE3       29.84F
6HR MIN TEMP:  63; 6HR MAX TEMP:  83;

MARSHALL       FAIR      67  66  94 CALM      29.84S
6HR MIN TEMP:  66; 6HR MAX TEMP:  81;

MOUNT PLEASANT FAIR      64  64 100 CALM      29.81S
6HR MIN TEMP:  64; 6HR MAX TEMP:  73; 6HR PCP:  0.26;

MUSKEGON       FAIR      61  57  87 CALM      29.82F
6HR MIN TEMP:  61; 6HR MAX TEMP:  73;

STURGIS        FAIR      66  61  84 CALM      29.84S
6HR MIN TEMP:  65; 6HR MAX TEMP:  83;

$$
MIZ016>042-270700-
NORTHERN LOWER MICHIGAN

CITY           SKY/WX    TMP DP  RH WIND       PRES   REMARKS
ALPENA         FAIR      56  56 100 CALM      29.82F FOG
6HR MIN TEMP:  55; 6HR MAX TEMP:  62;

BEAVER ISLAND  MOCLDY    65  60  83 CALM      29.78S
6HR MIN TEMP:  58; 6HR MAX TEMP:  69;

BELLAIRE       CLOUDY    68  62  81 CALM      29.80R
6HR MIN TEMP:  65; 6HR MAX TEMP:  78;

CADILLAC       FAIR      64  62  93 SW3       29.82F
CHARLEVOIX     RAIN      54  54 100 SW3       29.82S
6HR MIN TEMP:  53; 6HR MAX TEMP:  72;

GAYLORD        FAIR      64  63  96 CALM      29.82F
6HR MIN TEMP:  64; 6HR MAX TEMP:  69;

HOUGHTON LAKE  FAIR      61  60  97 CALM      29.83F
6HR MIN TEMP:  60; 6HR MAX TEMP:  67; 6HR PCP: TRACE;

MANISTEE       FAIR      58  55  90 E6        29.78F
OSCODA         FAIR      58  56  94 CALM      29.81F
6HR MIN TEMP:  58; 6HR MAX TEMP:  61;

PELLSTON       FAIR      64  62  93 SE5       29.78F
6HR MIN TEMP:  64; 6HR MAX TEMP:  77;

TRAVERSE CITY  FAIR      66  62  87 CALM      29.77F
6HR MIN TEMP:  64; 6HR MAX TEMP:  71; 6HR PCP: TRACE;

LUDINGTON      FAIR      59  59  99 CALM      29.79S
6HR MIN TEMP:  59; 6HR MAX TEMP:  72;

$$
MIZ007>008-015-270700-
EASTERN UPPER MICHIGAN

CITY           SKY/WX    TMP DP  RH WIND       PRES   REMARKS
KINROSS        FAIR      60  57  89 SE9       29.81F
6HR MIN TEMP:  59; 6HR MAX TEMP:  67;

MACKINAC ISLAN FAIR      53  53 100 SE7       29.79F
6HR MIN TEMP:  52; 6HR MAX TEMP:  65;

NEWBERRY       FAIR      59  58  97 S5        29.78S
6HR MIN TEMP:  59; 6HR MAX TEMP:  71;

S. S. MARIE    FAIR      61  58  90 E5        29.81F
6HR MIN TEMP:  60; 6HR MAX TEMP:  73;

$$
MIZ004>006-011>014-085-270700-
CENTRAL UPPER MICHIGAN

CITY           SKY/WX    TMP DP  RH WIND       PRES   REMARKS
MANISTIQUE     FAIR      55  53  94 S3        29.76S
6HR MIN TEMP:  55; 6HR MAX TEMP:  62; 6HR PCP:  0.04;

ESCANABA       FAIR      58  57  97 CALM      29.76F FOG
6HR MIN TEMP:  57; 6HR MAX TEMP:  64; 6HR PCP: TRACE;

MENOMINEE      FAIR      65  58  78 SW6       29.76F
6HR MIN TEMP:  61; 6HR MAX TEMP:  71; 6HR PCP: TRACE;

SAWYER-GWINN   MOCLDY    60  57  91 N6        29.77S
6HR MIN TEMP:  60; 6HR MAX TEMP:  68;

$$
MIZ001>003-009>011-084-270700-
WESTERN UPPER MICHIGAN

CITY           SKY/WX    TMP DP  RH WIND       PRES   REMARKS
IRON MOUNTAIN  FAIR      59  57  93 CALM      29.76S
6HR MIN TEMP:  59; 6HR MAX TEMP:  72;

HOUGHTON       FAIR      53  50  89 NE3       29.76S
6HR MIN TEMP:  53; 6HR MAX TEMP:  69;

COPPER HARBOR    N/A     58  53  84 SW7       29.74R
6HR MIN TEMP:  46; 6HR MAX TEMP:  62; 6HR PCP:  0.05;

IRONWOOD       FAIR      58  57  97 CALM      29.78S
6HR MIN TEMP:  57; 6HR MAX TEMP:  76;

$$

ABBREVIATIONS USED IN REMARKS
   TC - TEMPERATURE IN CELSIUS
  WCI - WIND CHILL INDEX
   HX - HEAT INDEX
  VSB - VISIBILITY




USA.gov is the U.S. government's official web portal to all federal, state and local government web resources and services.